Regional Weather Roundup
Issued by NWS Cleveland, OH

Home | Current Version | Previous Version | Text Only | Print | Product List | Glossary Off
Versions: 1 2 3 4 5 6 7 8 9 10 11 12 13 14 15 16 17 18 19 20 21 22 23 24 25 26 27 28 29 30 31 32 33 34 35 36 37 38 39 40 41 42 43 44 45 46 47 48 49 50

000
ASUS41 KCLE 050410
RWRCLE
OHIO REGIONAL WEATHER ROUNDUP
NATIONAL WEATHER SERVICE WILMINGTON, OH
1200 AM EDT WED AUG 05 2015

NOTE: "FAIR" INDICATES FEW OR NO CLOUDS BELOW 12,000 FEET WITH NO
SIGNIFICANT WEATHER AND/OR OBSTRUCTIONS TO VISIBILITY.

OHZ001>008-015>018-024>027-034-035-043-044-050500-
   NORTHWEST OHIO

CITY           SKY/WX    TMP DP  RH WIND       PRES   REMARKS
DEFIANCE       PTCLDY    66  59  78 CALM      30.02S
FINDLAY        PTCLDY    65  60  84 W3        30.01S
TOLEDO EXPRESS PTCLDY    65  57  75 W5        30.01R
TOLEDO EXEC    PTCLDY    66  56  70 W6        30.01S
LIMA           PTCLDY    65  60  84 SW3       30.03R
$$

OHZ009>014-019>023-028>033-038-089-050500-
   NORTHEAST OHIO

CITY           SKY/WX    TMP DP  RH WIND       PRES   REMARKS
CLE-HOPKINS    MOCLDY    66  59  78 SW7       30.01R
CLE-LAKEFRONT  PTCLDY    72  59  63 SW9       29.97S
CUY CO. ARPT   NOT AVBL
LORAIN-ELYRIA  MOCLDY    65  59  81 W6        30.00S
ASHTABULA      PTCLDY    64  58  80 CALM      29.99R
AKRON-CANTON   PTCLDY    65  55  70 W5        30.00S
WOOSTER        PTCLDY    61  57  87 W3        30.01F
MANSFIELD      PTCLDY    67  58  72 W6        30.02S
YOUNGSTOWN     MOCLDY    62  56  80 CALM      30.00R
$$

OHZ042-051>053-060>062-070>072-077>081-050500-
  SOUTHWEST OHIO

CITY           SKY/WX    TMP DP  RH WIND       PRES   REMARKS
CINC-COVINGTON CLOUDY    71  61  70 CALM      30.02F
CINC-LUNKEN    CLOUDY    66  65  96 SE3       30.02F
HAMILTON       CLOUDY    67  66  97 CALM      30.03F
DAYTON         MOCLDY    68  60  75 NW6       30.04F
WRIGHT-PAT AFB CLOUDY    68  61  79 VRB1      30.02F
DAYTON GENERAL CLOUDY    69  62  78 CALM      30.02F
WILMINGTON     CLOUDY    67  60  78 CALM      30.03F
$$

OHZ036-037-039>041-045>050-054>059-063>069-073>076-082>088-050500-
  CENTRAL AND SOUTHEAST OHIO

CITY           SKY/WX    TMP DP  RH WIND       PRES   REMARKS
COLUMBUS       CLOUDY    70  57  63 CALM      30.01R
OSU AIRPORT    MOCLDY    67  59  75 W6        30.02R
BOLTON FIELD   MOCLDY    66  61  86 W5        30.03R
RICKENBACK AFB MOCLDY    67  60  79 NW5       30.01R
NEWARK         PTCLDY    63  60  90 CALM      30.01S
MARION         PTCLDY    68  59  73 W5        30.02S
LANCASTER      MOCLDY    62  59  90 CALM      30.02R
ZANESVILLE     PTCLDY    64  58  80 CALM      30.01S
NEW PHILLY     CLEAR     60  59  96 CALM      30.01S
$$


USA.gov is the U.S. government's official web portal to all federal, state and local government web resources and services.